Time,TemperatureF,DewpointF,PressureIn,WindDirection,WindDirectionDegrees,WindSpeedMPH,WindSpeedGustMPH,Humidity,HourlyPrecipIn,Conditions,Clouds,dailyrainin,SoftwareType,DateUTC
2013-05-23 00:01:00,75.9,59.8,29.73,SE,143,6.0,9.0,57,0.00,,,0.02,WUHU216DAVISVP2,2013-05-23 04:01:00,
2013-05-23 00:02:00,75.9,59.8,29.73,SSE,150,4.0,9.0,57,0.00,,,0.02,WUHU216DAVISVP2,2013-05-23 04:02:00,
2013-05-23 00:07:00,75.0,59.9,29.73,ESE,116,3.0,9.0,59,0.00,,,0.00,WUHU216DAVISVP2,2013-05-23 04:07:00,
2013-05-23 00:13:00,74.3,59.7,29.73,South,188,2.0,9.0,60,0.00,,,0.00,WUHU216DAVISVP2,2013-05-23 04:13:00,
2013-05-23 00:19:00,74.0,59.9,29.73,SSE,165,1.0,8.0,61,0.00,,,0.00,WUHU216DAVISVP2,2013-05-23 04:19:00,
2013-05-23 00:24:00,73.6,60.0,29.73,SSE,150,4.0,8.0,62,0.00,,,0.00,WUHU216DAVISVP2,2013-05-23 04:24:00,
2013-05-23 00:29:00,73.5,59.9,29.73,SE,141,1.0,8.0,62,0.00,,,0.00,WUHU216DAVISVP2,2013-05-23 04:29:00,
2013-05-23 00:34:00,73.5,59.9,29.73,South,176,4.0,6.0,62,0.00,,,0.00,WUHU216DAVISVP2,2013-05-23 04:34:00,
2013-05-23 00:40:00,73.2,59.6,29.73,SSE,165,1.0,9.0,62,0.00,,,0.00,WUHU216DAVISVP2,2013-05-23 04:40:00,
2013-05-23 00:46:00,72.9,59.3,29.73,SSW,210,1.0,9.0,62,0.00,,,0.00,WUHU216DAVISVP2,2013-05-23 04:46:00,
2013-05-23 00:52:00,72.6,59.0,29.73,South,189,3.0,9.0,62,0.00,,,0.00,WUHU216DAVISVP2,2013-05-23 04:52:00,
2013-05-23 00:57:00,72.4,59.3,29.73,SE,127,5.0,9.0,63,0.00,,,0.00,WUHU216DAVISVP2,2013-05-23 04:57:00,
2013-05-23 01:02:00,72.4,59.3,29.73,SE,136,3.0,9.0,63,0.00,,,0.00,WUHU216DAVISVP2,2013-05-23 05:02:00,
2013-05-23 01:07:00,72.4,59.7,29.73,SSE,148,6.0,12.0,64,0.00,,,0.00,WUHU216DAVISVP2,2013-05-23 05:07:00,
2013-05-23 01:12:00,72.4,59.7,29.73,South,180,7.0,12.0,64,0.00,,,0.00,WUHU216DAVISVP2,2013-05-23 05:12:00,
2013-05-23 01:18:00,72.4,59.7,29.73,SSE,160,4.0,12.0,64,0.00,,,0.00,WUHU216DAVISVP2,2013-05-23 05:18:00,
2013-05-23 01:23:00,72.3,60.1,29.73,SSE,166,1.0,13.0,65,0.00,,,0.00,WUHU216DAVISVP2,2013-05-23 05:23:00,
2013-05-23 01:28:00,72.2,60.0,29.73,SSE,148,4.0,13.0,65,0.00,,,0.00,WUHU216DAVISVP2,2013-05-23 05:28:00,
2013-05-23 01:33:00,72.0,60.2,29.73,South,181,4.0,13.0,66,0.00,,,0.00,WUHU216DAVISVP2,2013-05-23 05:33:00,
2013-05-23 01:38:00,71.9,60.1,29.73,SSW,201,4.0,10.0,66,0.00,,,0.00,WUHU216DAVISVP2,2013-05-23 05:38:00,
2013-05-23 01:45:00,71.8,60.4,29.73,South,176,3.0,10.0,67,0.00,,,0.00,WUHU216DAVISVP2,2013-05-23 05:45:00,
2013-05-23 01:50:00,71.5,60.6,29.73,SSE,158,4.0,8.0,68,0.00,,,0.00,WUHU216DAVISVP2,2013-05-23 05:50:00,
2013-05-23 01:56:00,71.4,60.3,29.73,SSE,165,2.0,8.0,68,0.00,,,0.00,WUHU216DAVISVP2,2013-05-23 05:56:00,
2013-05-23 02:01:00,71.2,60.1,29.73,SSE,158,7.0,8.0,68,0.00,,,0.00,WUHU216DAVISVP2,2013-05-23 06:01:00,
2013-05-23 02:06:00,71.1,60.4,29.72,SSW,208,0.0,9.0,69,0.00,,,0.00,WUHU216DAVISVP2,2013-05-23 06:06:00,
2013-05-23 02:11:00,71.0,60.3,29.72,SW,228,2.0,9.0,69,0.00,,,0.00,WUHU216DAVISVP2,2013-05-23 06:11:00,
2013-05-23 02:16:00,70.8,60.5,29.72,SSE,167,1.0,9.0,70,0.00,,,0.00,WUHU216DAVISVP2,2013-05-23 06:16:00,
2013-05-23 02:21:00,70.7,60.6,29.72,SSE,156,4.0,8.0,70,0.00,,,0.00,WUHU216DAVISVP2,2013-05-23 06:21:00,
2013-05-23 02:26:00,70.6,60.5,29.72,SSE,165,4.0,7.0,70,0.00,,,0.00,WUHU216DAVISVP2,2013-05-23 06:26:00,
2013-05-23 02:32:00,70.6,60.9,29.71,SSE,149,2.0,7.0,71,0.00,,,0.00,WUHU216DAVISVP2,2013-05-23 06:32:00,
2013-05-23 02:39:00,70.6,60.9,29.71,ESE,122,1.0,6.0,71,0.00,,,0.00,WUHU216DAVISVP2,2013-05-23 06:39:00,
2013-05-23 02:44:00,70.4,61.1,29.71,SSE,163,3.0,6.0,72,0.00,,,0.00,WUHU216DAVISVP2,2013-05-23 06:44:00,
2013-05-23 02:50:00,70.3,61.0,29.71,SSE,156,4.0,9.0,72,0.00,,,0.00,WUHU216DAVISVP2,2013-05-23 06:50:00,
2013-05-23 02:55:00,70.3,61.0,29.71,SE,131,3.0,9.0,72,0.00,,,0.00,WUHU216DAVISVP2,2013-05-23 06:55:00,
2013-05-23 03:00:00,70.3,61.0,29.71,SSE,153,5.0,9.0,72,0.00,,,0.00,WUHU216DAVISVP2,2013-05-23 07:00:00,
2013-05-23 03:05:00,70.2,60.9,29.71,SSE,156,3.0,9.0,72,0.00,,,0.00,WUHU216DAVISVP2,2013-05-23 07:05:00,
2013-05-23 03:11:00,70.2,60.9,29.71,SW,233,0.0,8.0,72,0.00,,,0.00,WUHU216DAVISVP2,2013-05-23 07:11:00,
2013-05-23 03:19:00,70.0,61.1,29.71,SE,142,2.0,7.0,73,0.00,,,0.00,WUHU216DAVISVP2,2013-05-23 07:19:00,
2013-05-23 03:26:00,70.0,61.1,29.71,SW,225,2.0,5.0,73,0.00,,,0.00,WUHU216DAVISVP2,2013-05-23 07:26:00,
2013-05-23 03:31:00,70.0,60.9,29.71,SSE,158,2.0,5.0,73,0.00,,,0.00,WUHU216DAVISVP2,2013-05-23 07:31:00,
2013-05-23 03:36:00,70.0,60.9,29.71,SE,136,2.0,6.0,73,0.00,,,0.00,WUHU216DAVISVP2,2013-05-23 07:36:00,
2013-05-23 03:41:00,70.0,61.5,29.72,South,173,1.0,6.0,74,0.00,,,0.00,WUHU216DAVISVP2,2013-05-23 07:41:00,
2013-05-23 03:46:00,70.0,61.5,29.72,SSE,148,1.0,6.0,74,0.00,,,0.00,WUHU216DAVISVP2,2013-05-23 07:46:00,
2013-05-23 03:51:00,69.9,61.4,29.72,ESE,120,2.0,7.0,74,0.00,,,0.00,WUHU216DAVISVP2,2013-05-23 07:51:00,
2013-05-23 03:56:00,69.9,61.4,29.72,SSW,197,1.0,7.0,74,0.00,,,0.00,WUHU216DAVISVP2,2013-05-23 07:56:00,
2013-05-23 04:02:00,69.9,61.4,29.72,South,180,2.0,7.0,74,0.00,,,0.00,WUHU216DAVISVP2,2013-05-23 08:02:00,
2013-05-23 04:07:00,69.9,61.4,29.72,WSW,255,3.0,7.0,74,0.00,,,0.00,WUHU216DAVISVP2,2013-05-23 08:07:00,
2013-05-23 04:12:00,69.9,61.4,29.72,SE,133,3.0,7.0,74,0.00,,,0.00,WUHU216DAVISVP2,2013-05-23 08:12:00,
2013-05-23 04:17:00,69.8,61.7,29.72,SE,128,2.0,7.0,75,0.00,,,0.00,WUHU216DAVISVP2,2013-05-23 08:17:00,
2013-05-23 04:23:00,69.8,61.7,29.72,SSE,162,2.0,7.0,75,0.00,,,0.00,WUHU216DAVISVP2,2013-05-23 08:23:00,
2013-05-23 04:28:00,69.7,61.6,29.72,SSW,197,1.0,7.0,75,0.00,,,0.00,WUHU216DAVISVP2,2013-05-23 08:28:00,
2013-05-23 04:33:00,69.6,61.8,29.72,SE,141,2.0,5.0,76,0.00,,,0.00,WUHU216DAVISVP2,2013-05-23 08:33:00,
2013-05-23 04:41:00,69.3,61.4,29.72,South,183,2.0,6.0,76,0.00,,,0.00,WUHU216DAVISVP2,2013-05-23 08:41:00,
2013-05-23 04:46:00,69.2,61.7,29.72,SSE,165,3.0,6.0,77,0.00,,,0.00,WUHU216DAVISVP2,2013-05-23 08:46:00,
2013-05-23 04:51:00,69.0,62.0,29.72,SSE,148,1.0,6.0,78,0.00,,,0.00,WUHU216DAVISVP2,2013-05-23 08:51:00,
2013-05-23 04:57:00,68.8,61.8,29.72,South,172,2.0,6.0,78,0.00,,,0.00,WUHU216DAVISVP2,2013-05-23 08:57:00,
2013-05-23 05:02:00,68.6,61.9,29.72,SSW,203,2.0,6.0,79,0.00,,,0.00,WUHU216DAVISVP2,2013-05-23 09:02:00,
2013-05-23 05:07:00,68.3,62.0,29.72,South,181,3.0,6.0,80,0.00,,,0.00,WUHU216DAVISVP2,2013-05-23 09:07:00,
2013-05-23 05:13:00,68.1,61.8,29.72,SE,139,1.0,6.0,80,0.00,,,0.00,WUHU216DAVISVP2,2013-05-23 09:13:00,
2013-05-23 05:18:00,68.0,61.7,29.72,SSE,156,1.0,6.0,80,0.00,,,0.00,WUHU216DAVISVP2,2013-05-23 09:18:00,
2013-05-23 05:24:00,67.9,61.9,29.72,SE,140,2.0,6.0,81,0.00,,,0.00,WUHU216DAVISVP2,2013-05-23 09:24:00,
2013-05-23 05:29:00,67.8,61.8,29.72,SSE,154,1.0,6.0,81,0.00,,,0.00,WUHU216DAVISVP2,2013-05-23 09:29:00,
2013-05-23 05:34:00,67.7,61.7,29.72,SSE,154,4.0,6.0,81,0.00,,,0.00,WUHU216DAVISVP2,2013-05-23 09:34:00,
2013-05-23 05:39:00,67.6,61.6,29.72,SSE,160,2.0,6.0,81,0.00,,,0.00,WUHU216DAVISVP2,2013-05-23 09:39:00,
2013-05-23 05:45:00,67.6,61.6,29.72,South,170,2.0,6.0,81,0.00,,,0.00,WUHU216DAVISVP2,2013-05-23 09:45:00,
2013-05-23 05:50:00,67.5,61.5,29.72,South,172,3.0,6.0,81,0.00,,,0.00,WUHU216DAVISVP2,2013-05-23 09:50:00,
2013-05-23 05:55:00,67.5,61.5,29.72,SSW,200,1.0,6.0,81,0.00,,,0.00,WUHU216DAVISVP2,2013-05-23 09:55:00,
2013-05-23 06:02:00,67.7,61.7,29.72,SE,141,1.0,6.0,81,0.00,,,0.00,WUHU216DAVISVP2,2013-05-23 10:02:00,
2013-05-23 06:07:00,67.8,61.8,29.72,SSE,167,3.0,6.0,81,0.00,,,0.00,WUHU216DAVISVP2,2013-05-23 10:07:00,
2013-05-23 06:12:00,67.9,61.6,29.72,SSE,159,1.0,6.0,80,0.00,,,0.00,WUHU216DAVISVP2,2013-05-23 10:12:00,
2013-05-23 06:18:00,67.9,61.6,29.72,SSE,159,1.0,6.0,80,0.00,,,0.00,WUHU216DAVISVP2,2013-05-23 10:18:00,
2013-05-23 06:23:00,68.0,61.7,29.72,SSE,162,2.0,6.0,80,0.00,,,0.00,WUHU216DAVISVP2,2013-05-23 10:23:00,
2013-05-23 06:28:00,68.1,62.1,29.72,SSE,149,0.0,6.0,81,0.00,,,0.00,WUHU216DAVISVP2,2013-05-23 10:28:00,
2013-05-23 06:33:00,68.2,61.9,29.72,SE,145,3.0,5.0,80,0.00,,,0.00,WUHU216DAVISVP2,2013-05-23 10:33:00,
2013-05-23 06:39:00,68.4,62.0,29.72,SSE,160,2.0,5.0,80,0.00,,,0.00,WUHU216DAVISVP2,2013-05-23 10:39:00,
2013-05-23 06:44:00,68.4,62.1,29.73,South,181,1.0,5.0,80,0.00,,,0.00,WUHU216DAVISVP2,2013-05-23 10:44:00,
2013-05-23 06:49:00,68.3,62.3,29.73,WSW,246,0.0,5.0,81,0.00,,,0.00,WUHU216DAVISVP2,2013-05-23 10:49:00,
2013-05-23 06:55:00,68.2,62.2,29.73,SE,124,2.0,5.0,81,0.00,,,0.00,WUHU216DAVISVP2,2013-05-23 10:55:00,
2013-05-23 07:00:00,68.2,62.2,29.73,SSE,163,2.0,5.0,81,0.00,,,0.00,WUHU216DAVISVP2,2013-05-23 11:00:00,
2013-05-23 07:05:00,68.3,62.3,29.73,SE,137,1.0,5.0,81,0.00,,,0.00,WUHU216DAVISVP2,2013-05-23 11:05:00,
2013-05-23 07:11:00,68.3,62.3,29.73,South,183,1.0,5.0,81,0.00,,,0.00,WUHU216DAVISVP2,2013-05-23 11:11:00,
2013-05-23 07:17:00,68.4,62.4,29.73,SSE,160,0.0,4.0,81,0.00,,,0.00,WUHU216DAVISVP2,2013-05-23 11:17:00,
2013-05-23 07:22:00,68.4,62.4,29.74,South,177,3.0,5.0,81,0.00,,,0.00,WUHU216DAVISVP2,2013-05-23 11:22:00,
2013-05-23 07:27:00,68.4,62.7,29.74,SE,143,1.0,5.0,82,0.00,,,0.00,WUHU216DAVISVP2,2013-05-23 11:27:00,
2013-05-23 07:32:00,68.3,63.0,29.74,SSE,162,4.0,5.0,83,0.00,,,0.00,WUHU216DAVISVP2,2013-05-23 11:32:00,
2013-05-23 07:37:00,68.1,62.8,29.75,South,183,1.0,5.0,83,0.00,,,0.00,WUHU216DAVISVP2,2013-05-23 11:37:00,
2013-05-23 07:43:00,68.0,62.6,29.75,SSE,153,1.0,5.0,83,0.00,,,0.00,WUHU216DAVISVP2,2013-05-23 11:43:00,
2013-05-23 07:48:00,68.0,62.7,29.74,SE,126,1.0,5.0,83,0.00,,,0.00,WUHU216DAVISVP2,2013-05-23 11:48:00,
2013-05-23 07:53:00,68.1,62.8,29.75,SSW,200,0.0,4.0,83,0.00,,,0.00,WUHU216DAVISVP2,2013-05-23 11:53:00,
2013-05-23 07:59:00,68.3,63.0,29.74,SSW,199,1.0,4.0,83,0.00,,,0.00,WUHU216DAVISVP2,2013-05-23 11:59:00,
2013-05-23 08:04:00,68.5,63.2,29.74,South,172,0.0,4.0,83,0.00,,,0.00,WUHU216DAVISVP2,2013-05-23 12:04:00,
2013-05-23 08:09:00,68.9,62.9,29.74,SSE,151,0.0,4.0,81,0.00,,,0.00,WUHU216DAVISVP2,2013-05-23 12:09:00,
2013-05-23 08:15:00,69.0,63.3,29.74,SSE,161,3.0,4.0,82,0.00,,,0.00,WUHU216DAVISVP2,2013-05-23 12:15:00,
2013-05-23 08:20:00,69.2,63.5,29.74,SE,129,3.0,5.0,82,0.00,,,0.00,WUHU216DAVISVP2,2013-05-23 12:20:00,
2013-05-23 08:25:00,69.2,63.1,29.75,South,173,2.0,6.0,81,0.00,,,0.00,WUHU216DAVISVP2,2013-05-23 12:25:00,
2013-05-23 08:31:00,69.5,63.1,29.75,SSE,167,1.0,6.0,80,0.00,,,0.00,WUHU216DAVISVP2,2013-05-23 12:31:00,
2013-05-23 08:36:00,69.9,63.2,29.75,SSE,163,2.0,7.0,79,0.00,,,0.00,WUHU216DAVISVP2,2013-05-23 12:36:00,
2013-05-23 08:42:00,70.4,63.3,29.75,SE,139,2.0,8.0,78,0.00,,,0.00,WUHU216DAVISVP2,2013-05-23 12:42:00,
2013-05-23 08:47:00,70.9,63.4,29.75,SSE,149,3.0,8.0,77,0.00,,,0.00,WUHU216DAVISVP2,2013-05-23 12:47:00,
2013-05-23 08:52:00,71.4,63.6,29.75,East,89,1.0,8.0,76,0.00,,,0.00,WUHU216DAVISVP2,2013-05-23 12:52:00,
2013-05-23 08:58:00,72.3,64.1,29.75,SSE,150,3.0,8.0,75,0.00,,,0.00,WUHU216DAVISVP2,2013-05-23 12:58:00,
2013-05-23 09:04:00,73.1,63.5,29.75,SE,127,4.0,7.0,72,0.00,,,0.00,WUHU216DAVISVP2,2013-05-23 13:04:00,
2013-05-23 09:09:00,73.3,63.9,29.75,SSE,160,1.0,9.0,72,0.00,,,0.00,WUHU216DAVISVP2,2013-05-23 13:09:00,
2013-05-23 09:14:00,73.6,63.8,29.75,SSW,205,2.0,9.0,71,0.00,,,0.00,WUHU216DAVISVP2,2013-05-23 13:14:00,
2013-05-23 09:19:00,74.1,64.7,29.75,SE,133,1.0,9.0,72,0.00,,,0.00,WUHU216DAVISVP2,2013-05-23 13:19:00,
2013-05-23 09:26:00,74.5,64.3,29.75,SE,141,2.0,9.0,70,0.00,,,0.00,WUHU216DAVISVP2,2013-05-23 13:26:00,
2013-05-23 09:31:00,74.3,64.1,29.75,South,188,2.0,10.0,70,0.00,,,0.00,WUHU216DAVISVP2,2013-05-23 13:31:00,
2013-05-23 09:36:00,74.2,64.4,29.75,South,191,4.0,10.0,71,0.00,,,0.00,WUHU216DAVISVP2,2013-05-23 13:36:00,
2013-05-23 09:42:00,74.2,64.0,29.75,SW,236,3.0,10.0,70,0.00,,,0.00,WUHU216DAVISVP2,2013-05-23 13:42:00,
2013-05-23 09:48:00,74.1,64.3,29.75,SE,127,1.0,12.0,71,0.00,,,0.00,WUHU216DAVISVP2,2013-05-23 13:48:00,
2013-05-23 09:53:00,74.7,63.4,29.75,SSW,204,3.0,12.0,68,0.00,,,0.00,WUHU216DAVISVP2,2013-05-23 13:53:00,
2013-05-23 09:58:00,74.6,62.9,29.75,South,187,10.0,12.0,67,0.00,,,0.00,WUHU216DAVISVP2,2013-05-23 13:58:00,
2013-05-23 10:04:00,74.4,63.1,29.75,SSE,164,4.0,12.0,68,0.00,,,0.00,WUHU216DAVISVP2,2013-05-23 14:04:00,
2013-05-23 10:10:00,74.6,63.3,29.75,SSE,149,4.0,12.0,68,0.00,,,0.00,WUHU216DAVISVP2,2013-05-23 14:10:00,
2013-05-23 10:15:00,74.9,63.4,29.75,South,172,3.0,10.0,67,0.00,,,0.00,WUHU216DAVISVP2,2013-05-23 14:15:00,
2013-05-23 10:22:00,74.9,63.2,29.75,West,259,4.0,12.0,67,0.00,,,0.00,WUHU216DAVISVP2,2013-05-23 14:22:00,
2013-05-23 10:27:00,75.1,63.4,29.75,SSW,200,12.0,13.0,67,0.00,,,0.00,WUHU216DAVISVP2,2013-05-23 14:27:00,
2013-05-23 10:32:00,75.5,64.0,29.75,SSW,207,1.0,18.0,67,0.00,,,0.00,WUHU216DAVISVP2,2013-05-23 14:32:00,
2013-05-23 10:38:00,75.8,63.4,29.75,West,269,10.0,17.0,65,0.00,,,0.00,WUHU216DAVISVP2,2013-05-23 14:38:00,
2013-05-23 10:48:00,75.3,63.4,29.75,WSW,257,3.0,14.0,66,0.00,,,0.00,WUHU216DAVISVP2,2013-05-23 14:48:00,
2013-05-23 10:54:00,75.4,63.0,29.75,South,183,4.0,14.0,65,0.00,,,0.00,WUHU216DAVISVP2,2013-05-23 14:54:00,
2013-05-23 11:00:00,75.6,63.2,29.75,WSW,253,13.0,14.0,65,0.00,,,0.00,WUHU216DAVISVP2,2013-05-23 15:00:00,
2013-05-23 11:06:00,75.5,63.1,29.75,West,264,6.0,19.0,65,0.00,,,0.00,WUHU216DAVISVP2,2013-05-23 15:06:00,
2013-05-23 11:11:00,75.2,63.3,29.75,WSW,241,12.0,19.0,66,0.00,,,0.00,WUHU216DAVISVP2,2013-05-23 15:11:00,
2013-05-23 11:16:00,74.9,63.2,29.75,SW,219,8.0,18.0,67,0.00,,,0.00,WUHU216DAVISVP2,2013-05-23 15:16:00,
2013-05-23 11:21:00,74.6,62.9,29.75,SSW,210,5.0,18.0,67,0.00,,,0.00,WUHU216DAVISVP2,2013-05-23 15:21:00,
2013-05-23 11:26:00,74.3,63.1,29.75,ESE,119,2.0,16.0,68,0.00,,,0.00,WUHU216DAVISVP2,2013-05-23 15:26:00,
2013-05-23 11:31:00,74.3,63.5,29.75,SW,217,3.0,14.0,69,0.00,,,0.00,WUHU216DAVISVP2,2013-05-23 15:31:00,
2013-05-23 11:37:00,74.4,63.6,29.75,WSW,257,2.0,14.0,69,0.00,,,0.00,WUHU216DAVISVP2,2013-05-23 15:37:00,
2013-05-23 11:42:00,74.1,63.3,29.75,South,187,7.0,13.0,69,0.00,,,0.00,WUHU216DAVISVP2,2013-05-23 15:42:00,
2013-05-23 11:48:00,74.1,62.9,29.75,ESE,120,3.0,13.0,68,0.00,,,0.00,WUHU216DAVISVP2,2013-05-23 15:48:00,
2013-05-23 11:56:00,73.7,63.1,29.75,SSW,207,5.0,14.0,69,0.00,,,0.00,WUHU216DAVISVP2,2013-05-23 15:56:00,
2013-05-23 12:02:00,73.6,63.0,29.75,WSW,249,6.0,16.0,69,0.00,,,0.00,WUHU216DAVISVP2,2013-05-23 16:02:00,
2013-05-23 12:09:00,73.7,63.1,29.75,South,173,3.0,16.0,69,0.00,,,0.00,WUHU216DAVISVP2,2013-05-23 16:09:00,
2013-05-23 12:14:00,73.7,63.1,29.75,SW,226,8.0,16.0,69,0.00,,,0.00,WUHU216DAVISVP2,2013-05-23 16:14:00,
2013-05-23 12:21:00,73.7,63.1,29.75,South,182,4.0,16.0,69,0.00,,,0.00,WUHU216DAVISVP2,2013-05-23 16:21:00,
2013-05-23 12:27:00,73.6,63.4,29.74,SSE,162,2.0,17.0,70,0.00,,,0.00,WUHU216DAVISVP2,2013-05-23 16:27:00,
2013-05-23 12:32:00,73.9,63.7,29.75,SSW,200,7.0,17.0,70,0.00,,,0.00,WUHU216DAVISVP2,2013-05-23 16:32:00,
2013-05-23 12:37:00,73.8,64.0,29.74,NNW,342,3.0,12.0,71,0.00,,,0.00,WUHU216DAVISVP2,2013-05-23 16:37:00,
2013-05-23 12:43:00,74.1,64.7,29.74,SE,131,4.0,12.0,72,0.00,,,0.00,WUHU216DAVISVP2,2013-05-23 16:43:00,
2013-05-23 12:48:00,74.3,64.1,29.74,SW,218,5.0,12.0,70,0.00,,,0.00,WUHU216DAVISVP2,2013-05-23 16:48:00,
2013-05-23 12:54:00,75.1,64.8,29.74,SSW,201,3.0,8.0,70,0.00,,,0.00,WUHU216DAVISVP2,2013-05-23 16:54:00,
2013-05-23 13:00:00,75.7,64.0,29.74,West,262,7.0,12.0,67,0.00,,,0.00,WUHU216DAVISVP2,2013-05-23 17:00:00,
2013-05-23 13:05:00,75.9,64.6,29.73,South,191,1.0,13.0,68,0.00,,,0.00,WUHU216DAVISVP2,2013-05-23 17:05:00,
2013-05-23 13:12:00,77.0,64.6,29.73,West,273,2.0,13.0,65,0.00,,,0.00,WUHU216DAVISVP2,2013-05-23 17:12:00,
2013-05-23 13:19:00,76.9,63.6,29.73,SSE,156,6.0,13.0,63,0.00,,,0.00,WUHU216DAVISVP2,2013-05-23 17:19:00,
2013-05-23 13:24:00,77.2,64.8,29.72,SSE,150,5.0,12.0,65,0.00,,,0.00,WUHU216DAVISVP2,2013-05-23 17:24:00,
2013-05-23 13:29:00,77.3,64.0,29.72,SE,146,3.0,12.0,63,0.00,,,0.00,WUHU216DAVISVP2,2013-05-23 17:29:00,
2013-05-23 13:35:00,77.1,64.2,29.72,South,185,8.0,11.0,64,0.00,,,0.00,WUHU216DAVISVP2,2013-05-23 17:35:00,
2013-05-23 13:40:00,76.8,63.9,29.72,SSW,211,6.0,13.0,64,0.00,,,0.00,WUHU216DAVISVP2,2013-05-23 17:40:00,
2013-05-23 13:45:00,76.1,63.3,29.72,SW,219,5.0,14.0,64,0.00,,,0.00,WUHU216DAVISVP2,2013-05-23 17:45:00,
2013-05-23 13:51:00,75.1,63.6,29.72,WSW,246,9.0,16.0,67,0.00,,,0.00,WUHU216DAVISVP2,2013-05-23 17:51:00,
2013-05-23 13:57:00,72.4,64.5,29.73,WNW,293,2.0,16.0,76,0.01,,,0.01,WUHU216DAVISVP2,2013-05-23 17:57:00,
2013-05-23 14:06:00,69.0,64.3,29.72,WSW,252,4.0,16.0,85,0.16,,,0.20,WUHU216DAVISVP2,2013-05-23 18:06:00,
2013-05-23 14:11:00,67.8,64.4,29.71,WSW,238,4.0,13.0,89,0.26,,,0.26,WUHU216DAVISVP2,2013-05-23 18:11:00,
2013-05-23 14:17:00,68.3,64.9,29.72,West,274,2.0,13.0,89,0.26,,,0.26,WUHU216DAVISVP2,2013-05-23 18:17:00,
2013-05-23 14:22:00,68.9,65.5,29.71,West,263,1.0,9.0,89,0.26,,,0.26,WUHU216DAVISVP2,2013-05-23 18:22:00,
2013-05-23 14:27:00,69.6,65.9,29.71,South,191,0.0,9.0,88,0.26,,,0.26,WUHU216DAVISVP2,2013-05-23 18:27:00,
2013-05-23 14:32:00,70.2,66.2,29.71,SW,226,0.0,9.0,87,0.26,,,0.26,WUHU216DAVISVP2,2013-05-23 18:32:00,
2013-05-23 14:38:00,71.1,67.4,29.70,WSW,250,0.0,9.0,88,0.26,,,0.26,WUHU216DAVISVP2,2013-05-23 18:38:00,
2013-05-23 14:43:00,71.6,66.2,29.71,SW,228,1.0,4.0,83,0.26,,,0.26,WUHU216DAVISVP2,2013-05-23 18:43:00,
2013-05-23 14:47:00,72.2,66.1,29.70,SW,222,3.0,4.0,81,0.26,,,0.26,WUHU216DAVISVP2,2013-05-23 18:47:00,
2013-05-23 14:49:00,71.9,66.5,29.70,SW,231,0.0,4.0,83,0.26,,,0.26,WUHU216DAVISVP2,2013-05-23 18:49:00,
2013-05-23 14:53:00,72.5,67.1,29.70,SW,221,0.0,4.0,83,0.23,,,0.26,WUHU216DAVISVP2,2013-05-23 18:53:00,
2013-05-23 14:56:00,72.6,66.5,29.70,West,267,1.0,4.0,81,0.10,,,0.26,WUHU216DAVISVP2,2013-05-23 18:56:00,
2013-05-23 14:58:00,72.8,67.1,29.70,SW,228,2.0,4.0,82,0.06,,,0.26,WUHU216DAVISVP2,2013-05-23 18:58:00,
2013-05-23 15:06:00,73.4,66.9,29.70,SSE,158,1.0,5.0,80,0.00,,,0.26,WUHU216DAVISVP2,2013-05-23 19:06:00,
2013-05-23 15:09:00,73.4,67.3,29.71,South,188,2.0,5.0,81,0.00,,,0.26,WUHU216DAVISVP2,2013-05-23 19:09:00,
2013-05-23 15:11:00,73.3,66.8,29.71,SE,144,1.0,7.0,80,0.00,,,0.26,WUHU216DAVISVP2,2013-05-23 19:11:00,
2013-05-23 15:19:00,72.9,67.1,29.70,SSE,159,0.0,7.0,82,0.00,,,0.26,WUHU216DAVISVP2,2013-05-23 19:19:00,
2013-05-23 15:22:00,73.1,67.7,29.70,South,174,0.0,7.0,83,0.00,,,0.26,WUHU216DAVISVP2,2013-05-23 19:22:00,
2013-05-23 15:24:00,73.2,67.4,29.70,NNW,328,1.0,7.0,82,0.00,,,0.26,WUHU216DAVISVP2,2013-05-23 19:24:00,
2013-05-23 15:32:00,72.6,66.5,29.70,SW,228,2.0,6.0,81,0.00,,,0.26,WUHU216DAVISVP2,2013-05-23 19:32:00,
2013-05-23 15:34:00,72.3,66.6,29.71,NW,321,2.0,6.0,82,0.00,,,0.26,WUHU216DAVISVP2,2013-05-23 19:34:00,
2013-05-23 15:37:00,72.2,66.8,29.71,WNW,287,0.0,6.0,83,0.00,,,0.26,WUHU216DAVISVP2,2013-05-23 19:37:00,
2013-05-23 15:45:00,72.2,66.0,29.71,SW,226,1.0,6.0,81,0.00,,,0.26,WUHU216DAVISVP2,2013-05-23 19:45:00,
2013-05-23 15:54:00,71.9,65.0,29.71,WNW,290,2.0,5.0,79,0.00,,,0.26,WUHU216DAVISVP2,2013-05-23 19:54:00,
2013-05-23 16:00:00,71.5,63.7,29.71,SW,234,1.0,8.0,76,0.00,,,0.26,WUHU216DAVISVP2,2013-05-23 20:00:00,
2013-05-23 16:06:00,71.4,63.6,29.71,SW,236,2.0,8.0,76,0.00,,,0.26,WUHU216DAVISVP2,2013-05-23 20:06:00,
2013-05-23 16:11:00,71.3,63.8,29.71,West,263,3.0,8.0,77,0.00,,,0.26,WUHU216DAVISVP2,2013-05-23 20:11:00,
2013-05-23 16:16:00,71.1,63.6,29.70,WSW,248,0.0,7.0,77,0.00,,,0.26,WUHU216DAVISVP2,2013-05-23 20:16:00,
2013-05-23 16:21:00,70.9,64.5,29.70,WSW,255,2.0,6.0,80,0.01,,,0.27,WUHU216DAVISVP2,2013-05-23 20:21:00,
2013-05-23 16:26:00,70.6,64.2,29.71,SW,235,2.0,6.0,80,0.01,,,0.27,WUHU216DAVISVP2,2013-05-23 20:26:00,
2013-05-23 16:32:00,70.3,64.3,29.71,West,263,2.0,6.0,81,0.01,,,0.27,WUHU216DAVISVP2,2013-05-23 20:32:00,
2013-05-23 16:37:00,70.3,64.9,29.71,West,264,1.0,6.0,83,0.01,,,0.27,WUHU216DAVISVP2,2013-05-23 20:37:00,
2013-05-23 16:43:00,70.6,65.2,29.71,WSW,252,0.0,5.0,83,0.01,,,0.27,WUHU216DAVISVP2,2013-05-23 20:43:00,
2013-05-23 16:49:00,70.8,65.4,29.71,SW,236,4.0,8.0,83,0.01,,,0.27,WUHU216DAVISVP2,2013-05-23 20:49:00,
2013-05-23 16:55:00,70.7,65.3,29.71,WNW,287,3.0,8.0,83,0.01,,,0.27,WUHU216DAVISVP2,2013-05-23 20:55:00,
2013-05-23 17:00:00,70.8,64.1,29.71,WSW,241,4.0,10.0,79,0.01,,,0.27,WUHU216DAVISVP2,2013-05-23 21:00:00,
2013-05-23 17:07:00,70.9,64.5,29.70,WSW,256,3.0,10.0,80,0.01,,,0.27,WUHU216DAVISVP2,2013-05-23 21:07:00,
2013-05-23 17:12:00,71.0,64.3,29.70,WSW,256,5.0,9.0,79,0.01,,,0.27,WUHU216DAVISVP2,2013-05-23 21:12:00,
2013-05-23 17:17:00,71.1,64.4,29.70,NW,323,2.0,9.0,79,0.01,,,0.27,WUHU216DAVISVP2,2013-05-23 21:17:00,
2013-05-23 17:24:00,71.2,63.6,29.70,NW,316,1.0,9.0,77,0.00,,,0.27,WUHU216DAVISVP2,2013-05-23 21:24:00,
2013-05-23 17:29:00,71.1,62.0,29.70,WNW,297,5.0,7.0,73,0.00,,,0.27,WUHU216DAVISVP2,2013-05-23 21:29:00,
2013-05-23 17:34:00,70.7,61.6,29.70,WNW,293,2.0,8.0,73,0.00,,,0.27,WUHU216DAVISVP2,2013-05-23 21:34:00,
2013-05-23 17:39:00,70.4,62.1,29.70,North,349,3.0,8.0,75,0.00,,,0.27,WUHU216DAVISVP2,2013-05-23 21:39:00,
2013-05-23 17:44:00,70.2,62.3,29.70,West,272,0.0,8.0,76,0.00,,,0.27,WUHU216DAVISVP2,2013-05-23 21:44:00,
2013-05-23 17:49:00,70.3,62.9,29.70,NNE,17,0.0,8.0,77,0.00,,,0.27,WUHU216DAVISVP2,2013-05-23 21:49:00,
2013-05-23 17:55:00,70.5,62.6,29.71,North,360,2.0,8.0,76,0.00,,,0.27,WUHU216DAVISVP2,2013-05-23 21:55:00,
2013-05-23 18:00:00,70.5,62.3,29.71,NNE,23,1.0,5.0,75,0.00,,,0.27,WUHU216DAVISVP2,2013-05-23 22:00:00,
2013-05-23 18:06:00,70.3,62.1,29.71,NW,319,0.0,6.0,75,0.00,,,0.27,WUHU216DAVISVP2,2013-05-23 22:06:00,
2013-05-23 18:11:00,71.0,62.4,29.72,NE,46,2.0,6.0,74,0.00,,,0.27,WUHU216DAVISVP2,2013-05-23 22:11:00,
2013-05-23 18:17:00,71.2,63.7,29.72,NE,51,2.0,6.0,77,0.00,,,0.27,WUHU216DAVISVP2,2013-05-23 22:17:00,
2013-05-23 18:23:00,70.6,63.9,29.72,NE,37,3.0,5.0,79,0.00,,,0.27,WUHU216DAVISVP2,2013-05-23 22:23:00,
2013-05-23 18:28:00,70.1,63.7,29.72,NNE,27,2.0,5.0,80,0.00,,,0.27,WUHU216DAVISVP2,2013-05-23 22:28:00,
2013-05-23 18:33:00,69.9,63.9,29.72,NE,34,0.0,5.0,81,0.00,,,0.27,WUHU216DAVISVP2,2013-05-23 22:33:00,
2013-05-23 18:39:00,69.9,63.9,29.72,East,90,0.0,5.0,81,0.00,,,0.27,WUHU216DAVISVP2,2013-05-23 22:39:00,
2013-05-23 18:44:00,69.7,63.7,29.72,NE,44,0.0,3.0,81,0.00,,,0.27,WUHU216DAVISVP2,2013-05-23 22:44:00,
2013-05-23 18:50:00,69.7,63.6,29.72,ESE,114,2.0,2.0,81,0.00,,,0.27,WUHU216DAVISVP2,2013-05-23 22:50:00,
2013-05-23 18:57:00,69.3,64.0,29.72,ESE,117,2.0,2.0,83,0.00,,,0.27,WUHU216DAVISVP2,2013-05-23 22:57:00,
2013-05-23 19:02:00,68.9,63.5,29.72,East,96,1.0,2.0,83,0.00,,,0.27,WUHU216DAVISVP2,2013-05-23 23:02:00,
2013-05-23 19:07:00,68.8,63.8,29.72,East,98,0.0,2.0,84,0.00,,,0.27,WUHU216DAVISVP2,2013-05-23 23:07:00,
2013-05-23 19:13:00,68.8,63.8,29.72,SE,126,0.0,2.0,84,0.00,,,0.27,WUHU216DAVISVP2,2013-05-23 23:13:00,
2013-05-23 19:19:00,68.7,63.7,29.73,SE,127,1.0,2.0,84,0.00,,,0.27,WUHU216DAVISVP2,2013-05-23 23:19:00,
2013-05-23 19:24:00,68.6,63.9,29.73,SE,127,0.0,1.0,85,0.00,,,0.27,WUHU216DAVISVP2,2013-05-23 23:24:00,
2013-05-23 19:29:00,68.6,63.9,29.73,NE,43,6.0,6.0,85,0.00,,,0.27,WUHU216DAVISVP2,2013-05-23 23:29:00,
2013-05-23 19:34:00,68.2,63.2,29.74,NE,37,2.0,8.0,84,0.00,,,0.27,WUHU216DAVISVP2,2013-05-23 23:34:00,
2013-05-23 19:39:00,67.8,62.8,29.74,NE,36,5.0,8.0,84,0.01,,,0.28,WUHU216DAVISVP2,2013-05-23 23:39:00,
2013-05-23 19:44:00,66.8,62.2,29.74,NNE,12,4.0,7.0,85,0.01,,,0.28,WUHU216DAVISVP2,2013-05-23 23:44:00,
2013-05-23 19:50:00,65.6,61.0,29.74,NNW,330,2.0,9.0,85,0.02,,,0.29,WUHU216DAVISVP2,2013-05-23 23:50:00,
2013-05-23 19:56:00,64.9,60.6,29.74,NNE,13,3.0,9.0,86,0.02,,,0.29,WUHU216DAVISVP2,2013-05-23 23:56:00,
2013-05-23 20:01:00,64.0,60.4,29.75,NNW,334,1.0,9.0,88,0.02,,,0.29,WUHU216DAVISVP2,2013-05-24 00:01:00,
2013-05-23 20:06:00,63.5,60.2,29.76,WSW,253,2.0,9.0,89,0.06,,,0.33,WUHU216DAVISVP2,2013-05-24 00:06:00,
2013-05-23 20:11:00,63.1,60.4,29.76,WSW,250,1.0,5.0,91,0.12,,,0.39,WUHU216DAVISVP2,2013-05-24 00:11:00,
2013-05-23 20:17:00,62.8,60.4,29.75,ENE,64,3.0,4.0,92,0.15,,,0.42,WUHU216DAVISVP2,2013-05-24 00:17:00,
2013-05-23 20:22:00,62.4,60.3,29.75,WNW,302,1.0,4.0,93,0.21,,,0.48,WUHU216DAVISVP2,2013-05-24 00:22:00,
2013-05-23 20:27:00,62.2,60.1,29.76,NNW,347,2.0,4.0,93,0.22,,,0.49,WUHU216DAVISVP2,2013-05-24 00:27:00,
2013-05-23 20:32:00,62.0,60.2,29.75,NNW,331,4.0,6.0,94,0.22,,,0.49,WUHU216DAVISVP2,2013-05-24 00:32:00,
2013-05-23 20:37:00,62.0,60.3,29.75,NNE,22,2.0,6.0,94,0.22,,,0.49,WUHU216DAVISVP2,2013-05-24 00:37:00,
2013-05-23 20:42:00,61.8,60.0,29.75,North,356,3.0,6.0,94,0.21,,,0.49,WUHU216DAVISVP2,2013-05-24 00:42:00,
2013-05-23 20:47:00,61.7,59.9,29.75,North,349,3.0,6.0,94,0.20,,,0.49,WUHU216DAVISVP2,2013-05-24 00:47:00,
2013-05-23 20:52:00,61.6,60.1,29.75,NNE,26,4.0,6.0,95,0.21,,,0.50,WUHU216DAVISVP2,2013-05-24 00:52:00,
2013-05-23 20:57:00,61.5,60.0,29.76,NNW,340,1.0,6.0,95,0.21,,,0.50,WUHU216DAVISVP2,2013-05-24 00:57:00,
2013-05-23 21:02:00,61.4,59.9,29.76,NW,323,2.0,6.0,95,0.20,,,0.50,WUHU216DAVISVP2,2013-05-24 01:02:00,
2013-05-23 21:07:00,61.2,59.4,29.75,North,9,8.0,9.0,94,0.16,,,0.50,WUHU216DAVISVP2,2013-05-24 01:07:00,
2013-05-23 21:12:00,60.6,58.5,29.75,NE,53,6.0,10.0,93,0.11,,,0.50,WUHU216DAVISVP2,2013-05-24 01:12:00,
2013-05-23 21:17:00,60.0,58.2,29.75,NW,323,6.0,10.0,94,0.03,,,0.50,WUHU216DAVISVP2,2013-05-24 01:17:00,
2013-05-23 21:22:00,59.6,57.9,29.75,NE,39,6.0,10.0,94,0.02,,,0.50,WUHU216DAVISVP2,2013-05-24 01:22:00,
2013-05-23 21:27:00,59.3,57.5,29.76,NW,325,4.0,9.0,94,0.01,,,0.50,WUHU216DAVISVP2,2013-05-24 01:27:00,
2013-05-23 21:33:00,59.0,57.2,29.76,NNE,12,6.0,9.0,94,0.02,,,0.51,WUHU216DAVISVP2,2013-05-24 01:33:00,
2013-05-23 21:38:00,58.5,56.7,29.77,North,5,2.0,10.0,94,0.03,,,0.52,WUHU216DAVISVP2,2013-05-24 01:38:00,
2013-05-23 21:45:00,58.1,56.3,29.76,North,352,2.0,10.0,94,0.05,,,0.54,WUHU216DAVISVP2,2013-05-24 01:45:00,
2013-05-23 21:50:00,57.3,55.6,29.77,North,5,3.0,12.0,94,0.06,,,0.56,WUHU216DAVISVP2,2013-05-24 01:50:00,
2013-05-23 21:55:00,56.8,55.1,29.77,NW,323,5.0,12.0,94,0.07,,,0.57,WUHU216DAVISVP2,2013-05-24 01:55:00,
2013-05-23 22:01:00,56.4,54.7,29.78,NNW,347,4.0,12.0,94,0.07,,,0.57,WUHU216DAVISVP2,2013-05-24 02:01:00,
2013-05-23 22:07:00,55.7,54.0,29.78,NNE,17,2.0,12.0,94,0.07,,,0.57,WUHU216DAVISVP2,2013-05-24 02:07:00,
2013-05-23 22:12:00,55.0,53.3,29.78,NNE,14,6.0,14.0,94,0.08,,,0.58,WUHU216DAVISVP2,2013-05-24 02:12:00,
2013-05-23 22:17:00,54.5,52.8,29.78,NNW,346,4.0,14.0,94,0.08,,,0.58,WUHU216DAVISVP2,2013-05-24 02:17:00,
2013-05-23 22:22:00,54.1,52.4,29.78,NNW,331,9.0,12.0,94,0.09,,,0.59,WUHU216DAVISVP2,2013-05-24 02:22:00,
2013-05-23 22:28:00,53.7,52.0,29.78,NE,41,5.0,12.0,94,0.09,,,0.59,WUHU216DAVISVP2,2013-05-24 02:28:00,
2013-05-23 22:33:00,53.2,51.5,29.78,NE,37,4.0,12.0,94,0.09,,,0.60,WUHU216DAVISVP2,2013-05-24 02:33:00,
2013-05-23 22:38:00,52.9,51.5,29.78,NNE,14,5.0,12.0,95,0.08,,,0.60,WUHU216DAVISVP2,2013-05-24 02:38:00,
2013-05-23 22:44:00,52.6,50.9,29.79,NNW,333,11.0,12.0,94,0.06,,,0.60,WUHU216DAVISVP2,2013-05-24 02:44:00,
2013-05-23 22:49:00,52.1,50.4,29.79,NNW,345,4.0,14.0,94,0.04,,,0.60,WUHU216DAVISVP2,2013-05-24 02:49:00,
2013-05-23 22:54:00,51.9,50.5,29.80,North,349,3.0,14.0,95,0.03,,,0.60,WUHU216DAVISVP2,2013-05-24 02:54:00,
2013-05-23 23:00:00,51.8,50.4,29.80,SE,138,2.0,13.0,95,0.03,,,0.60,WUHU216DAVISVP2,2013-05-24 03:00:00,
2013-05-23 23:06:00,51.4,49.7,29.81,NW,321,5.0,13.0,94,0.03,,,0.60,WUHU216DAVISVP2,2013-05-24 03:06:00,
2013-05-23 23:11:00,51.1,49.4,29.80,NNW,338,5.0,13.0,94,0.02,,,0.60,WUHU216DAVISVP2,2013-05-24 03:11:00,
2013-05-23 23:16:00,50.9,49.2,29.80,NNE,29,4.0,13.0,94,0.02,,,0.60,WUHU216DAVISVP2,2013-05-24 03:16:00,
2013-05-23 23:22:00,50.8,49.4,29.81,NNE,27,3.0,13.0,95,0.01,,,0.60,WUHU216DAVISVP2,2013-05-24 03:22:00,
2013-05-23 23:28:00,50.6,48.9,29.81,North,357,10.0,18.0,94,0.00,,,0.60,WUHU216DAVISVP2,2013-05-24 03:28:00,
2013-05-23 23:33:00,50.1,48.4,29.81,NNW,338,9.0,18.0,94,0.01,,,0.61,WUHU216DAVISVP2,2013-05-24 03:33:00,
2013-05-23 23:38:00,49.8,48.1,29.81,NNW,340,5.0,18.0,94,0.03,,,0.63,WUHU216DAVISVP2,2013-05-24 03:38:00,
2013-05-23 23:44:00,49.6,48.2,29.81,North,1,2.0,17.0,95,0.04,,,0.64,WUHU216DAVISVP2,2013-05-24 03:44:00,
2013-05-23 23:50:00,49.4,48.0,29.81,NNW,340,9.0,15.0,95,0.04,,,0.64,WUHU216DAVISVP2,2013-05-24 03:50:00,
2013-05-23 23:55:00,48.9,47.5,29.82,NW,304,7.0,16.0,95,0.04,,,0.64,WUHU216DAVISVP2,2013-05-24 03:55:00,